| time (UTC) | temp C | wind direction | speed KPH | gust KPH | rain 1hr cm | rain 24hr cm | rain mn cm | humidity % | barometer mb |
| 20260508004539 | 10 | 140 | 1.6 | 6.4 | 0.00 | 0.00 | 0.00 | 81 | 1016.0 |
| 20260508003639 | 10 | 121 | 0.0 | 1.6 | 0.00 | 0.00 | 0.00 | 80 | 1015.9 |
| 20260508002739 | 10 | 121 | 0.0 | 1.6 | 0.00 | 0.00 | 0.00 | 80 | 1016.0 |
| 20260508001839 | 10 | 119 | 0.0 | 6.4 | 0.00 | 0.00 | 0.00 | 80 | 1016.1 |
| 20260508000939 | 10 | 115 | 0.0 | 3.2 | 0.00 | 0.00 | 0.00 | 79 | 1016.0 |
| 20260508000039 | 11 | 115 | 0.0 | 1.6 | 0.00 | 0.00 | 0.00 | 79 | 1016.1 |
| 20260507235439 | 11 | 115 | 0.0 | 6.4 | 0.00 | 0.00 | 0.00 | 79 | 1016.1 |
| 20260507234600 | 11 | 115 | 0.0 | 6.4 | 0.00 | 0.00 | 0.00 | 79 | 1016.1 |
| 20260507233639 | 11 | 139 | 1.6 | 3.2 | 0.00 | 0.00 | 0.00 | 78 | 1016.3 |
| 20260507232739 | 11 | 148 | 1.6 | 8.0 | 0.00 | 0.00 | 0.00 | 78 | 1016.4 |
| 20260507231900 | 11 | 142 | 1.6 | 6.4 | 0.00 | 0.00 | 0.00 | 77 | 1016.5 |
| 20260507230939 | 11 | 143 | 0.0 | 3.2 | 0.00 | 0.00 | 0.00 | 77 | 1016.5 |
| 20260507230040 | 11 | 158 | 1.6 | 8.0 | 0.00 | 0.00 | 0.00 | 77 | 1016.5 |
| 20260507225500 | 11 | 156 | 1.6 | 8.0 | 0.00 | 0.00 | 0.00 | 77 | 1016.5 |
| 20260507224539 | 11 | 155 | 0.0 | 8.0 | 0.00 | 0.00 | 0.00 | 76 | 1016.7 |
| 20260507223639 | 11 | 150 | 1.6 | 8.0 | 0.00 | 0.00 | 0.00 | 76 | 1016.7 |
| 20260507222739 | 11 | 157 | 4.8 | 12.9 | 0.00 | 0.00 | 0.00 | 76 | 1016.6 |
| 20260507221839 | 11 | 160 | 3.2 | 9.7 | 0.00 | 0.00 | 0.00 | 76 | 1016.6 |
| 20260507220939 | 11 | 149 | 3.2 | 9.7 | 0.00 | 0.00 | 0.00 | 76 | 1016.6 |
| 20260507220100 | 11 | 153 | 3.2 | 9.7 | 0.00 | 0.00 | 0.00 | 77 | 1016.6 |
| 20260507215439 | 11 | 141 | 1.6 | 9.7 | 0.00 | 0.00 | 0.00 | 77 | 1016.6 |
| 20260507214539 | 11 | 132 | 0.0 | 8.0 | 0.00 | 0.00 | 0.00 | 77 | 1016.6 |
| 20260507213639 | 11 | 132 | 0.0 | 8.0 | 0.00 | 0.00 | 0.00 | 77 | 1016.6 |
| 20260507212739 | 12 | 138 | 1.6 | 8.0 | 0.00 | 0.00 | 0.00 | 77 | 1016.6 |
| 20260507211900 | 12 | 132 | 1.6 | 6.4 | 0.00 | 0.00 | 0.00 | 77 | 1016.6 |
| 20260507210939 | 12 | 136 | 1.6 | 6.4 | 0.00 | 0.00 | 0.00 | 77 | 1016.5 |
| 20260507210039 | 12 | 136 | 0.0 | 3.2 | 0.00 | 0.00 | 0.00 | 76 | 1016.4 |
| 20260507205439 | 12 | 134 | 0.0 | 3.2 | 0.00 | 0.00 | 0.00 | 76 | 1016.4 |
| 20260507204539 | 12 | 128 | 1.6 | 8.0 | 0.00 | 0.00 | 0.00 | 76 | 1016.4 |
| 20260507203639 | 12 | 118 | 1.6 | 8.0 | 0.00 | 0.00 | 0.00 | 76 | 1016.3 |
| 20260507202739 | 12 | 125 | 1.6 | 9.7 | 0.00 | 0.00 | 0.00 | 74 | 1016.3 |
| 20260507201839 | 12 | 146 | 3.2 | 16.1 | 0.00 | 0.00 | 0.00 | 72 | 1016.2 |
| 20260507201000 | 12 | 156 | 4.8 | 17.7 | 0.00 | 0.00 | 0.00 | 71 | 1016.1 |
| 20260507200039 | 12 | 159 | 4.8 | 12.9 | 0.00 | 0.00 | 0.00 | 70 | 1016.0 |
| 20260507195438 | 12 | 157 | 3.2 | 12.9 | 0.00 | 0.00 | 0.00 | 70 | 1015.8 |
| 20260507194539 | 12 | 153 | 3.2 | 12.9 | 0.00 | 0.00 | 0.00 | 72 | 1015.8 |
| 20260507193639 | 12 | 143 | 3.2 | 11.3 | 0.00 | 0.00 | 0.00 | 73 | 1015.7 |
| 20260507192739 | 12 | 145 | 3.2 | 11.3 | 0.00 | 0.00 | 0.00 | 73 | 1015.6 |
| 20260507191839 | 12 | 148 | 3.2 | 16.1 | 0.00 | 0.00 | 0.00 | 73 | 1015.7 |
| 20260507190939 | 12 | 137 | 3.2 | 16.1 | 0.00 | 0.00 | 0.00 | 73 | 1015.7 |
| 20260507190039 | 12 | 140 | 3.2 | 12.9 | 0.00 | 0.00 | 0.00 | 72 | 1015.6 |
| 20260507185500 | 12 | 144 | 3.2 | 12.9 | 0.00 | 0.00 | 0.00 | 72 | 1015.7 |
| 20260507184538 | 12 | 147 | 4.8 | 12.9 | 0.00 | 0.00 | 0.00 | 72 | 1015.6 |
| 20260507183638 | 12 | 132 | 4.8 | 12.9 | 0.00 | 0.00 | 0.00 | 71 | 1015.6 |
| 20260507182738 | 12 | 141 | 4.8 | 16.1 | 0.00 | 0.00 | 0.00 | 71 | 1015.6 |
| 20260507181900 | 12 | 142 | 4.8 | 16.1 | 0.00 | 0.00 | 0.00 | 70 | 1015.7 |
| 20260507180939 | 13 | 136 | 4.8 | 16.1 | 0.00 | 0.00 | 0.00 | 70 | 1015.6 |
| 20260507180039 | 13 | 157 | 4.8 | 19.3 | 0.00 | 0.00 | 0.00 | 69 | 1015.5 |
| 20260507175439 | 13 | 157 | 4.8 | 17.7 | 0.00 | 0.00 | 0.00 | 69 | 1015.6 |
| 20260507174539 | 13 | 133 | 4.8 | 12.9 | 0.00 | 0.00 | 0.00 | 68 | 1015.5 |
| 20260507173639 | 13 | 148 | 4.8 | 11.3 | 0.00 | 0.00 | 0.00 | 68 | 1015.4 |
| 20260507172738 | 13 | 155 | 4.8 | 16.1 | 0.00 | 0.00 | 0.00 | 67 | 1015.3 |
| 20260507171838 | 13 | 144 | 6.4 | 16.1 | 0.00 | 0.00 | 0.00 | 66 | 1015.2 |
| 20260507170938 | 13 | 152 | 4.8 | 19.3 | 0.00 | 0.00 | 0.00 | 66 | 1015.2 |
| 20260507170038 | 13 | 148 | 4.8 | 16.1 | 0.00 | 0.00 | 0.00 | 66 | 1015.2 |
| 20260507165459 | 13 | 146 | 4.8 | 16.1 | 0.00 | 0.00 | 0.00 | 65 | 1015.2 |
| 20260507164538 | 13 | 150 | 4.8 | 17.7 | 0.00 | 0.00 | 0.00 | 65 | 1015.2 |
| 20260507163638 | 13 | 141 | 4.8 | 17.7 | 0.00 | 0.00 | 0.00 | 64 | 1015.2 |
| 20260507162738 | 13 | 153 | 6.4 | 19.3 | 0.00 | 0.00 | 0.00 | 64 | 1015.2 |
| 20260507161838 | 13 | 137 | 4.8 | 16.1 | 0.00 | 0.00 | 0.00 | 64 | 1015.3 |
| 20260507160938 | 13 | 150 | 4.8 | 16.1 | 0.00 | 0.00 | 0.00 | 63 | 1015.3 |
| 20260507160038 | 13 | 140 | 4.8 | 16.1 | 0.00 | 0.00 | 0.00 | 63 | 1015.4 |
| 20260507155438 | 13 | 141 | 4.8 | 16.1 | 0.00 | 0.00 | 0.00 | 63 | 1015.3 |
| 20260507154538 | 13 | 144 | 4.8 | 17.7 | 0.00 | 0.00 | 0.00 | 62 | 1015.3 |
| 20260507153638 | 13 | 150 | 6.4 | 20.9 | 0.00 | 0.00 | 0.00 | 61 | 1015.2 |
| 20260507152759 | 14 | 136 | 4.8 | 17.7 | 0.00 | 0.00 | 0.00 | 61 | 1015.3 |
| 20260507151859 | 14 | 135 | 6.4 | 19.3 | 0.00 | 0.00 | 0.00 | 60 | 1015.3 |
| 20260507150938 | 14 | 159 | 6.4 | 20.9 | 0.00 | 0.00 | 0.00 | 59 | 1015.4 |
| 20260507150038 | 14 | 160 | 8.0 | 19.3 | 0.00 | 0.00 | 0.00 | 59 | 1015.4 |
| 20260507145438 | 14 | 144 | 6.4 | 20.9 | 0.00 | 0.00 | 0.00 | 59 | 1015.3 |
| 20260507144538 | 14 | 153 | 6.4 | 17.7 | 0.00 | 0.00 | 0.00 | 61 | 1015.4 |
| 20260507143638 | 14 | 156 | 6.4 | 20.9 | 0.00 | 0.00 | 0.00 | 61 | 1015.4 |
| 20260507142738 | 14 | 150 | 4.8 | 19.3 | 0.00 | 0.00 | 0.00 | 61 | 1015.4 |
| 20260507141838 | 14 | 153 | 4.8 | 16.1 | 0.00 | 0.00 | 0.00 | 61 | 1015.4 |
| 20260507140938 | 13 | 158 | 3.2 | 11.3 | 0.00 | 0.00 | 0.00 | 63 | 1015.4 |
| 20260507140038 | 13 | 135 | 3.2 | 16.1 | 0.00 | 0.00 | 0.00 | 61 | 1015.6 |
| 20260507135438 | 13 | 147 | 4.8 | 17.7 | 0.00 | 0.00 | 0.00 | 62 | 1015.6 |
| 20260507134538 | 13 | 157 | 3.2 | 17.7 | 0.00 | 0.00 | 0.00 | 62 | 1015.7 |
| 20260507133638 | 13 | 165 | 3.2 | 12.9 | 0.00 | 0.00 | 0.00 | 62 | 1015.6 |
| 20260507132738 | 13 | 143 | 4.8 | 16.1 | 0.00 | 0.00 | 0.00 | 62 | 1015.6 |
| 20260507131838 | 13 | 152 | 3.2 | 11.3 | 0.00 | 0.00 | 0.00 | 62 | 1015.8 |
| 20260507130959 | 13 | 140 | 1.6 | 11.3 | 0.00 | 0.00 | 0.00 | 60 | 1015.7 |
| 20260507130038 | 13 | 156 | 3.2 | 12.9 | 0.00 | 0.00 | 0.00 | 61 | 1015.7 |
| 20260507125438 | 13 | 165 | 4.8 | 12.9 | 0.00 | 0.00 | 0.00 | 61 | 1015.8 |
| 20260507124559 | 13 | 159 | 4.8 | 12.9 | 0.00 | 0.00 | 0.00 | 60 | 1015.8 |
| 20260507123659 | 13 | 165 | 1.6 | 12.9 | 0.00 | 0.00 | 0.00 | 59 | 1015.8 |
| 20260507122739 | 13 | 156 | 4.8 | 12.9 | 0.00 | 0.00 | 0.00 | 60 | 1015.9 |
| 20260507121859 | 13 | 148 | 3.2 | 11.3 | 0.00 | 0.00 | 0.00 | 60 | 1015.8 |
| 20260507120938 | 13 | 139 | 3.2 | 11.3 | 0.00 | 0.00 | 0.00 | 60 | 1015.8 |
| 20260507120038 | 13 | 157 | 3.2 | 9.7 | 0.00 | 0.00 | 0.00 | 59 | 1015.9 |
| 20260507115459 | 13 | 156 | 3.2 | 9.7 | 0.00 | 0.00 | 0.00 | 61 | 1015.9 |
| 20260507114538 | 13 | 150 | 4.8 | 12.9 | 0.00 | 0.00 | 0.00 | 60 | 1015.9 |
| 20260507113638 | 13 | 148 | 3.2 | 11.3 | 0.00 | 0.00 | 0.00 | 61 | 1016.0 |
| 20260507112738 | 13 | 127 | 3.2 | 12.9 | 0.00 | 0.00 | 0.00 | 63 | 1016.0 |
| 20260507111838 | 13 | 163 | 4.8 | 12.9 | 0.00 | 0.00 | 0.00 | 65 | 1016.0 |
| 20260507110938 | 13 | 160 | 3.2 | 16.1 | 0.00 | 0.00 | 0.00 | 64 | 1016.1 |
| 20260507110038 | 13 | 159 | 3.2 | 16.1 | 0.00 | 0.00 | 0.00 | 63 | 1016.1 |
| 20260507105438 | 12 | 158 | 1.6 | 9.7 | 0.00 | 0.00 | 0.00 | 64 | 1016.3 |
| 20260507104538 | 12 | 161 | 3.2 | 12.9 | 0.00 | 0.00 | 0.00 | 64 | 1016.2 |
| 20260507103638 | 12 | 175 | 3.2 | 16.1 | 0.00 | 0.00 | 0.00 | 64 | 1016.2 |
| 20260507102738 | 12 | 167 | 3.2 | 16.1 | 0.00 | 0.00 | 0.00 | 64 | 1016.4 |
| 20260507101859 | 12 | 158 | 1.6 | 9.7 | 0.00 | 0.00 | 0.00 | 62 | 1016.3 |
| 20260507100938 | 12 | 165 | 1.6 | 11.3 | 0.00 | 0.00 | 0.00 | 65 | 1016.3 |
| 20260507100038 | 12 | 151 | 1.6 | 11.3 | 0.00 | 0.00 | 0.00 | 66 | 1016.3 |
| 20260507095438 | 12 | 151 | 1.6 | 11.3 | 0.00 | 0.00 | 0.00 | 65 | 1016.3 |
| 20260507094538 | 12 | 157 | 3.2 | 11.3 | 0.00 | 0.00 | 0.00 | 67 | 1016.3 |
| 20260507093638 | 12 | 146 | 3.2 | 9.7 | 0.00 | 0.00 | 0.00 | 69 | 1016.3 |
| 20260507092759 | 12 | 151 | 1.6 | 9.7 | 0.00 | 0.00 | 0.00 | 68 | 1016.3 |
| 20260507091859 | 12 | 150 | 1.6 | 9.7 | 0.00 | 0.00 | 0.00 | 68 | 1016.3 |
| 20260507090938 | 12 | 157 | 3.2 | 11.3 | 0.00 | 0.00 | 0.00 | 67 | 1016.3 |
| 20260507090038 | 12 | 160 | 3.2 | 12.9 | 0.00 | 0.00 | 0.00 | 68 | 1016.3 |
| 20260507085438 | 12 | 158 | 3.2 | 12.9 | 0.00 | 0.00 | 0.00 | 69 | 1016.4 |
| 20260507084538 | 12 | 142 | 3.2 | 11.3 | 0.00 | 0.00 | 0.00 | 69 | 1016.4 |
| 20260507083638 | 13 | 146 | 3.2 | 11.3 | 0.00 | 0.00 | 0.00 | 68 | 1016.2 |
| 20260507082759 | 12 | 140 | 3.2 | 11.3 | 0.00 | 0.00 | 0.00 | 70 | 1016.2 |
| 20260507081838 | 12 | 151 | 3.2 | 11.3 | 0.00 | 0.00 | 0.00 | 70 | 1016.2 |
| 20260507080938 | 12 | 158 | 3.2 | 11.3 | 0.00 | 0.00 | 0.00 | 71 | 1016.2 |
| 20260507080038 | 12 | 155 | 3.2 | 11.3 | 0.00 | 0.00 | 0.00 | 73 | 1016.2 |
| 20260507075438 | 12 | 147 | 1.6 | 11.3 | 0.00 | 0.00 | 0.00 | 73 | 1016.2 |
| 20260507074538 | 11 | 121 | 1.6 | 11.3 | 0.00 | 0.00 | 0.00 | 74 | 1016.1 |
| 20260507073638 | 11 | 140 | 1.6 | 9.7 | 0.00 | 0.00 | 0.00 | 76 | 1016.2 |
| 20260507072738 | 10 | 144 | 3.2 | 11.3 | 0.00 | 0.00 | 0.00 | 76 | 1016.1 |
| 20260507071859 | 10 | 159 | 3.2 | 9.7 | 0.00 | 0.00 | 0.00 | 78 | 1016.0 |
| 20260507070938 | 10 | 130 | 1.6 | 9.7 | 0.00 | 0.00 | 0.00 | 78 | 1016.0 |
| 20260507070038 | 10 | 103 | 0.0 | 8.0 | 0.00 | 0.00 | 0.00 | 78 | 1016.0 |
| 20260507065438 | 10 | 106 | 0.0 | 8.0 | 0.00 | 0.00 | 0.00 | 78 | 1016.0 |
| 20260507064538 | 10 | 114 | 1.6 | 8.0 | 0.00 | 0.00 | 0.00 | 78 | 1016.0 |
| 20260507063659 | 10 | 119 | 0.0 | 3.2 | 0.00 | 0.00 | 0.00 | 78 | 1016.0 |
| 20260507062738 | 9 | 139 | 0.0 | 6.4 | 0.00 | 0.00 | 0.00 | 78 | 1015.9 |
| 20260507061838 | 9 | 134 | 1.6 | 6.4 | 0.00 | 0.00 | 0.00 | 79 | 1016.0 |
| 20260507060959 | 9 | 130 | 0.0 | 3.2 | 0.00 | 0.00 | 0.00 | 79 | 1016.0 |
| 20260507060038 | 9 | 128 | 0.0 | 3.2 | 0.00 | 0.00 | 0.00 | 79 | 1015.8 |
| 20260507055459 | 9 | 128 | 0.0 | 3.2 | 0.00 | 0.00 | 0.00 | 79 | 1015.7 |
| 20260507054538 | 9 | 128 | 0.0 | 8.0 | 0.00 | 0.00 | 0.00 | 79 | 1015.6 |
| 20260507053639 | 9 | 128 | 1.6 | 8.0 | 0.00 | 0.00 | 0.00 | 79 | 1015.5 |
| 20260507052759 | 8 | 112 | 0.0 | 3.2 | 0.00 | 0.00 | 0.00 | 79 | 1015.4 |
| 20260507051858 | 8 | 85 | 0.0 | 6.4 | 0.00 | 0.00 | 0.00 | 79 | 1015.4 |
| 20260507050938 | 8 | 0 | 0.0 | 0.0 | 0.00 | 0.00 | 0.00 | 79 | 1015.3 |
| 20260507050038 | 8 | 0 | 0.0 | 0.0 | 0.00 | 0.00 | 0.00 | 79 | 1015.3 |
| 20260507045437 | 8 | 0 | 0.0 | 0.0 | 0.00 | 0.00 | 0.00 | 79 | 1015.2 |
| 20260507044538 | 8 | 0 | 0.0 | 0.0 | 0.00 | 0.00 | 0.00 | 80 | 1015.2 |
| 20260507043637 | 8 | 0 | 0.0 | 0.0 | 0.00 | 0.00 | 0.00 | 80 | 1015.1 |
| 20260507042737 | 8 | 0 | 0.0 | 0.0 | 0.00 | 0.00 | 0.00 | 80 | 1015.2 |
| 20260507041837 | 8 | 0 | 0.0 | 3.2 | 0.00 | 0.00 | 0.00 | 80 | 1015.2 |
| 20260507040937 | 8 | 80 | 0.0 | 3.2 | 0.00 | 0.00 | 0.00 | 80 | 1015.2 |
| 20260507040038 | 8 | 79 | 0.0 | 6.4 | 0.00 | 0.00 | 0.00 | 80 | 1015.1 |
| 20260507035438 | 8 | 76 | 0.0 | 6.4 | 0.00 | 0.00 | 0.00 | 80 | 1015.1 |
| 20260507034538 | 9 | 76 | 0.0 | 3.2 | 0.00 | 0.00 | 0.00 | 80 | 1015.0 |
| 20260507033637 | 9 | 76 | 0.0 | 6.4 | 0.00 | 0.00 | 0.00 | 80 | 1015.1 |
| 20260507032759 | 9 | 76 | 0.0 | 6.4 | 0.00 | 0.00 | 0.00 | 80 | 1015.0 |
| 20260507031837 | 9 | 77 | 1.6 | 9.7 | 0.00 | 0.00 | 0.00 | 80 | 1015.1 |
| 20260507030938 | 8 | 96 | 1.6 | 9.7 | 0.00 | 0.00 | 0.00 | 81 | 1015.0 |
| 20260507030058 | 8 | 83 | 1.6 | 9.7 | 0.00 | 0.00 | 0.00 | 82 | 1015.0 |
| 20260507025437 | 8 | 72 | 0.0 | 6.4 | 0.00 | 0.00 | 0.00 | 83 | 1015.0 |
| 20260507024537 | 8 | 44 | 0.0 | 6.4 | 0.00 | 0.00 | 0.00 | 84 | 1015.0 |
| 20260507023659 | 8 | 56 | 1.6 | 6.4 | 0.00 | 0.00 | 0.00 | 84 | 1015.0 |
| 20260507022738 | 8 | 34 | 1.6 | 6.4 | 0.00 | 0.00 | 0.00 | 84 | 1015.0 |
| 20260507021837 | 8 | 22 | 0.0 | 6.4 | 0.00 | 0.00 | 0.00 | 84 | 1015.0 |
| 20260507020958 | 8 | 359 | 0.0 | 3.2 | 0.00 | 0.00 | 0.00 | 84 | 1014.9 |
| 20260507020037 | 8 | 355 | 1.6 | 6.4 | 0.00 | 0.00 | 0.00 | 84 | 1014.9 |
| 20260507015437 | 8 | 356 | 1.6 | 6.4 | 0.00 | 0.00 | 0.00 | 83 | 1014.9 |
| 20260507014537 | 8 | 15 | 1.6 | 6.4 | 0.00 | 0.00 | 0.00 | 83 | 1014.8 |
| 20260507013637 | 9 | 23 | 0.0 | 1.6 | 0.00 | 0.00 | 0.00 | 82 | 1014.8 |
| 20260507012737 | 9 | 23 | 0.0 | 3.2 | 0.00 | 0.00 | 0.00 | 82 | 1014.9 |
| 20260507011837 | 9 | 20 | 0.0 | 3.2 | 0.00 | 0.00 | 0.00 | 82 | 1014.9 |
| 20260507010937 | 9 | 14 | 0.0 | 3.2 | 0.00 | 0.00 | 0.00 | 82 | 1015.5 |
| 20260507010037 | 9 | 14 | 0.0 | 3.2 | 0.00 | 0.00 | 0.00 | 82 | 1014.9 |
| 20260507005437 | 9 | 13 | 0.0 | 3.2 | 0.00 | 0.00 | 0.00 | 82 | 1014.8 |